Regional Weather Roundup
Issued by NWS

Home | Current Version | Previous Version | Text Only | Print | Product List | Glossary On
Versions: 1 2 3 4 5 6 7 8 9 10 11 12 13 14 15 16 17 18 19 20 21 22 23 24 25 26 27 28 29 30 31 32 33 34 35 36 37 38 39 40 41 42 43 44 45 46 47 48 49 50
000
ASUS43 KMKX 261721
RWRWI

WISCONSIN REGIONAL WEATHER ROUNDUP
NATIONAL WEATHER SERVICE MILWAUKEE/SULLIVAN WI
1200 PM CDT WED APR 26 2017

NOTE: "FAIR" INDICATES FEW OR NO CLOUDS BELOW 12,000 FEET WITH NO
SIGNIFICANT WEATHER AND/OR OBSTRUCTIONS TO VISIBILITY.

WIZ001-002-006>008-014>016-023>028-261800-
NORTHWEST WISCONSIN

CITY           SKY/WX    TMP DP  RH WIND       PRES   REMARKS
SUPERIOR ARPT  LGT SNOW  33  32  96 NE14G25   29.59F WCI  23
ASHLAND        RAIN      33  31  92 NE18G26   29.55S FOG     WCI  22
HAYWARD        FRZ RAIN  33  30  88 N15       29.48F FOG     WCI  23
SIREN          DRIZZLE   35  33  92 NE10G20   29.52S WCI  27
CUMBERLAND     DRIZZLE   32  32 100 N10G16    29.47S WCI  24
RICE LAKE      DRIZZLE   36  34  93 N9        29.47S WCI  29
CHETEK         LGT RAIN  36  35  96 N8        29.45R WCI  30
LADYSMITH      LGT RAIN  37  36  96 N10G18    29.44S WCI  30
EAU CLAIRE     LGT RAIN  39  37  92 NW10      29.45R FOG     WCI  32
MENOMONIE      RAIN      38  38 100 NW10      29.47R WCI  31
NEW RICHMOND   DRIZZLE   36  35  95 N13       29.49S WCI  28
OSCEOLA        DRIZZLE   37  37 100 N7        29.54R WCI  32
$$

WIZ003>005-009-010-017-018-261800-
NORTH CENTRAL WISCONSIN

CITY           SKY/WX    TMP DP  RH WIND       PRES   REMARKS
MANITOWISH WTR RAIN      34  34 100 N8        29.42F WCI  27
ARBOR VITAE    DRIZZLE   39  38  95 N9        29.39F WCI  33
WOODRUFF       DRIZZLE   39  38  95 N9        29.39F WCI  33
RHINELANDER    RAIN      49  49 100 NW6       29.38F FOG
EAGLE RIVER    RAIN      41  41 100 N5        29.38F
LAND O LAKES   RAIN      38  38 100 NE7       29.41F WCI  33
PHILLIPS       LGT RAIN  36  36 100 N12       29.41F WCI  28
TOMAHAWK       HVY RAIN  46  44  96 N5        29.39R
MEDFORD        RAIN      47  46  97 N6        29.37S
MERRILL        HVY RAIN  53  53 100 CALM      29.39R
$$

WIZ029-030-035-036-043>047-261800-
CENTRAL WISCONSIN

CITY           SKY/WX    TMP DP  RH WIND       PRES   REMARKS
WAUSAU         RAIN      54  54 100 SE5       29.35S FOG
MOSINEE        RAIN      55  55 100 S5        29.37R
MARSHFIELD     RAIN      57  55  93 S7        29.34F FOG
STEVENS POINT  RAIN      56  56 100 S9        29.36F
WAUPACA        LGT RAIN  61  60  97 S6        29.37F
WAUTOMA        LGT RAIN  60  58  92 S7        29.38
WISC RAPIDS    LGT RAIN  60  60 100 S6        29.36F
CAMP DOUGLAS   LGT RAIN  61  59  94 SW7       29.36F
$$

WIZ011>013-019>022-031-037>040-048>050-261800-
NORTHEAST WISCONSIN

CITY           SKY/WX    TMP DP  RH WIND       PRES   REMARKS
ANTIGO         RAIN      52  52 100 S7        29.39R
SHAWANO        DRIZZLE   59  55  88 CALM      29.38F
OCONTO         CLOUDY    60  53  76 SE7       29.38S
STURGEON BAY   CLOUDY    55  51  86 S18G25    29.39F
GREEN BAY      LGT RAIN  63  59  87 SE7       29.37F
MANITOWOC      CLOUDY    51  47  86 S12       29.41R
APPLETON       RAIN      61  57  88 S8        29.37S
CLINTONVILLE   RAIN      54  54 100 CALM      29.38R
OSHKOSH        LGT RAIN  61  58  90 SW7       29.38R FOG
$$

WIZ032>034-041-042-053>061-261800-
SOUTHWEST WISCONSIN

CITY           SKY/WX    TMP DP  RH WIND       PRES   REMARKS
LA CROSSE      LGT RAIN  50  48  93 NW15      29.40R
SPARTA         LGT RAIN  57  57 100 W5        29.38S
VIROQUA        CLOUDY    57  56  97 SW12      29.39F
BOSCOBEL       CLOUDY    59  55  87 SW10      29.42R
PRAIRIE DU CHI CLOUDY    55  51  88 SW8       29.43R
PLATTEVILLE    CLOUDY    57  57  99 SW16      29.44S
$$

WIZ056-057-062-063-064-067-068-261800-
SOUTH CENTRAL WISCONSIN

CITY           SKY/WX    TMP DP  RH WIND       PRES   REMARKS
REEDSBURG      DRIZZLE   61  61 100 SW9       29.37F
BARABOO/DELLS  CLOUDY    61  57  89 SW9       29.38F
LONE ROCK      CLOUDY    63  58  83 W10       29.39F
MINERAL POINT  CLOUDY    59  59 100 SW15      29.42S
MADISON        CLOUDY    61  58  90 SW6       29.40F
MIDDLETON      CLOUDY    62  60  90 S8        29.40F
WATERTOWN      DRIZZLE   59  59 100 S9        29.41S
MONROE         CLOUDY    61  59  94 SW10      29.43R
JANESVILLE     CLOUDY    63  63 100 SW14      29.42F
$$

WIZ051-052-058>065-066-070>072-261800-
SOUTHEAST WISCONSIN

CITY           SKY/WX    TMP DP  RH WIND       PRES   REMARKS
MILWAUKEE      CLOUDY    64  60  87 SW12      29.43S
WAUKESHA       CLOUDY    59  57  94 S12       29.44R
MILWAUKEE/TIMM LGT RAIN  61  55  82 S9        29.43R
RACINE         CLOUDY    61  54  77 S3        29.45R
KENOSHA        CLOUDY    67  56  67 SW12G26   29.45R
FOND DU LAC    LGT RAIN  61  57  87 S9        29.39R
SHEBOYGAN      LGT RAIN  52  50  93 S7        29.40R FOG
WEST BEND      DRIZZLE   61  59  94 SW13      29.41R
JUNEAU         LGT RAIN  59  58  96 S10       29.42S
$$

LSZ147-162-261800-
LAKE SUPERIOR

STATION/POSITION TIME  TEMP    WIND        PRES    WAVE
                       AIR SEA DIR/SP/G            HT/PER
                 (UTC) (F)     (DEG/KT/KT) (MB)    (FT/S)
DEVILS ISLAND    1700   32      40/ 29/ 32 1002.3F
PORT WING        1640   33      40/ 34/ 41 1001.7F
SAXON HARBOR     1705   34      40/ 24/ 25  999.7
$$

LMZ867-665-643>646-261800-
LAKE MICHIGAN

STATION/POSITION TIME  TEMP    WIND        PRES    WAVE
                       AIR SEA DIR/SP/G            HT/PER
                 (UTC) (F)     (DEG/KT/KT) (MB)    (FT/S)
CHAMBERS ISLAND  1640          140/  8/ 13  995.9F
N MID LAKE BUOY  1650   42 37   90/  8/  8  997.8F   2/ 4
NORTHPORT PIER   1640   46     140/  7/ 10  996.3F
KEWAUNEE LAKESHO 1654   47     170/ 11/ 14  995.7F
SHEBOYGAN LAKESH 1700   45     180/ 15/ 17  996.0R
PORT WASHINGTON  1630   48     180/  6/  8  997.6R
MILWAUKEE LAKESH 1700   53     160/ 11/ 12   N/A
S MID LAKE BUOY  1650   49 41  170/ 12/ 14  997.5R   2/ 4
KENOSHA   LAKESH 1700   67     220/ 11/ 17  997.6
$$

TC  - TEMPERATURE IN CELSIUS
VSB - VISIBILITY IN STATUTE MILES
WCI - WIND CHILL INDEX
HX  - HEAT INDEX





USA.gov is the U.S. government's official web portal to all federal, state and local government web resources and services.